Regional Weather Roundup
Issued by NWS

Home | Current Version | Previous Version | Graphics & Text | Print | Product List | Glossary On
Versions: 1 2 3 4 5 6 7 8 9 10 11 12 13 14 15 16 17 18 19 20 21 22 23 24 25 26 27 28 29 30 31 32 33 34 35 36 37 38 39 40 41 42 43 44 45 46 47 48 49 50
000
ASUS43 KMKX 270621
RWRWI

WISCONSIN REGIONAL WEATHER ROUNDUP
NATIONAL WEATHER SERVICE MILWAUKEE/SULLIVAN WI
1200 AM CST MON FEB 27 2017

NOTE: "FAIR" INDICATES FEW OR NO CLOUDS BELOW 12,000 FEET WITH NO
SIGNIFICANT WEATHER AND/OR OBSTRUCTIONS TO VISIBILITY.

WIZ001-002-006>008-014>016-023>028-270700-
NORTHWEST WISCONSIN

CITY           SKY/WX    TMP DP  RH WIND       PRES   REMARKS
SUPERIOR ARPT  CLEAR      6   3  87 CALM      29.96S
6HR MIN TEMP:   6; 6HR MAX TEMP:  21;

ASHLAND        CLEAR      8   4  83 S3        29.97R
6HR MIN TEMP:   8; 6HR MAX TEMP:  22;

HAYWARD        MOCLDY    11   7  84 NE3       29.94R
6HR MIN TEMP:  11; 6HR MAX TEMP:  25;

SIREN          CLOUDY    20  12  73 CALM      29.95S
6HR MIN TEMP:  14; 6HR MAX TEMP:  26;

CUMBERLAND     CLOUDY    23  14  68 S3        29.94S
RICE LAKE      CLOUDY    24  16  71 CALM      29.97S
6HR MIN TEMP:  19; 6HR MAX TEMP:  29;

CHETEK         CLOUDY    21  14  73 CALM      29.97R
6HR MIN TEMP:  17; 6HR MAX TEMP:  28;

LADYSMITH      CLOUDY    13   9  83 CALM      29.97S
6HR MIN TEMP:  12; 6HR MAX TEMP:  29;

EAU CLAIRE     CLOUDY    23  16  74 S3        29.97S
6HR MIN TEMP:  19; 6HR MAX TEMP:  32;

MENOMONIE      CLOUDY    25  17  72 E3        29.98R
6HR MIN TEMP:  19; 6HR MAX TEMP:  32;

NEW RICHMOND   CLOUDY    27  15  61 CALM      29.96S
6HR MIN TEMP:  25; 6HR MAX TEMP:  30;

OSCEOLA        CLOUDY    27  16  62 SE3       29.98S
6HR MIN TEMP:  23; 6HR MAX TEMP:  30;

$$

WIZ003>005-009-010-017-018-270700-
NORTH CENTRAL WISCONSIN

CITY           SKY/WX    TMP DP  RH WIND       PRES   REMARKS
MANITOWISH WTR CLEAR     -1  -3  94 CALM      29.91S
6HR MIN TEMP:  -2; 6HR MAX TEMP:  19;

ARBOR VITAE    CLEAR      6   3  88 CALM        N/A
6HR MIN TEMP:   6; 6HR MAX TEMP:  24;

WOODRUFF       CLEAR      6   3  88 CALM        N/A
6HR MIN TEMP:   6; 6HR MAX TEMP:  24;

RHINELANDER    CLEAR    N/A N/A N/A CALM      29.94R
EAGLE RIVER    CLEAR      2  -1  85 CALM      29.92R
6HR MIN TEMP:   2; 6HR MAX TEMP:  23;

LAND O LAKES   CLEAR     -2  -5  85 CALM      29.94R
6HR MIN TEMP:  -2; 6HR MAX TEMP:  21;

PHILLIPS       CLEAR      5   3  94 CALM      29.93R
6HR MIN TEMP:   3; 6HR MAX TEMP:  26;

TOMAHAWK       CLEAR      6   3  89 CALM      29.95R
6HR MIN TEMP:   6; 6HR MAX TEMP:  27;

MEDFORD        MOCLDY    15  10  81 S3        29.94R
6HR MIN TEMP:  12; 6HR MAX TEMP:  28;

MERRILL        NOT AVBL
$$

WIZ029-030-035-036-043>047-270700-
CENTRAL WISCONSIN

CITY           SKY/WX    TMP DP  RH WIND       PRES   REMARKS
WAUSAU         CLEAR     23  13  65 CALM      29.96R
6HR MIN TEMP:  23; 6HR MAX TEMP:  31;

MOSINEE        CLEAR     23  21  93 W7        29.98R WCI  15
MARSHFIELD     MOCLDY    23  19  85 W7        29.96R WCI  15
6HR MIN TEMP:  23; 6HR MAX TEMP:  31;

STEVENS POINT  CLEAR     26  21  82 W6        29.99R WCI  19
6HR MIN TEMP:  26; 6HR MAX TEMP:  32;

WAUPACA        CLEAR     29  22  73 W5        30.00R WCI  24
6HR MIN TEMP:  29; 6HR MAX TEMP:  39;

WAUTOMA        CLEAR     27  22  81 W7        30.01  WCI  19
6HR MIN TEMP:  27; 6HR MAX TEMP:  37;

WISC RAPIDS    CLEAR     27  22  81 W6        30.00R WCI  20
6HR MIN TEMP:  27; 6HR MAX TEMP:  35;

CAMP DOUGLAS   CLEAR     24  20  83 CALM      30.00R
6HR MIN TEMP:  24; 6HR MAX TEMP:  35;

$$

WIZ011>013-019>022-031-037>040-048>050-270700-
NORTHEAST WISCONSIN

CITY           SKY/WX    TMP DP  RH WIND       PRES   REMARKS
ANTIGO         CLEAR     13   8  81 CALM      29.95R
6HR MIN TEMP:  13; 6HR MAX TEMP:  30;

SHAWANO        PTCLDY    31  20  64 CALM      29.99R
6HR MIN TEMP:  31; 6HR MAX TEMP:  37;

OCONTO         CLOUDY    29  18  63 N6        29.99R WCI  23
6HR MIN TEMP:  28; 6HR MAX TEMP:  36;

STURGEON BAY   CLOUDY    28  22  78 N12       29.99R WCI  18
6HR MIN TEMP:  28; 6HR MAX TEMP:  36;

GREEN BAY      CLEAR     30  22  72 W8        29.99R WCI  22
6HR MIN TEMP:  30; 6HR MAX TEMP:  39;

MANITOWOC      CLEAR     31  22  69 W8        30.01R WCI  23
6HR MIN TEMP:  31; 6HR MAX TEMP:  38;

APPLETON       CLEAR     28  19  69 W7        29.97R WCI  21
CLINTONVILLE   CLEAR     28  19  69 W6        29.98R WCI  22
OSHKOSH        CLEAR     30  20  66 W6        30.00R WCI  24
6HR MIN TEMP:  30; 6HR MAX TEMP:  37;

$$

WIZ032>034-041-042-053>061-270700-
SOUTHWEST WISCONSIN

CITY           SKY/WX    TMP DP  RH WIND       PRES   REMARKS
LA CROSSE      CLEAR     29  22  75 S8        30.02R WCI  21
6HR MIN TEMP:  28; 6HR MAX TEMP:  35;

SPARTA         CLEAR     21  20  96 CALM      30.02S
6HR MIN TEMP:  20; 6HR MAX TEMP:  35;

VIROQUA        CLEAR     25  23  94 SW3       30.00S
6HR MIN TEMP:  24; 6HR MAX TEMP:  32;

BOSCOBEL       CLEAR     24  22  91 CALM      30.05R
6HR MIN TEMP:  24; 6HR MAX TEMP:  39;

PRAIRIE DU CHI CLEAR     28  23  82 CALM      30.05R
6HR MIN TEMP:  26; 6HR MAX TEMP:  36;

PLATTEVILLE    CLEAR     29  26  86 W5        30.03S WCI  24
6HR MIN TEMP:  29; 6HR MAX TEMP:  37;

$$

WIZ056-057-062-063-064-067-068-270700-
SOUTH CENTRAL WISCONSIN

CITY           SKY/WX    TMP DP  RH WIND       PRES   REMARKS
REEDSBURG      CLEAR     28  23  80 W6        30.02R WCI  22
6HR MIN TEMP:  28; 6HR MAX TEMP:  36;

BARABOO/DELLS  CLEAR     26  21  80 SW5       30.02R WCI  21
6HR MIN TEMP:  26; 6HR MAX TEMP:  37;

LONE ROCK      CLEAR     26  21  81 N5        30.04R WCI  20
6HR MIN TEMP:  25; 6HR MAX TEMP:  39;

MINERAL POINT  CLEAR     32  28  86 SW5       30.02R WCI  27
MADISON        CLEAR     28  22  78 CALM      30.03R
6HR MIN TEMP:  28; 6HR MAX TEMP:  39;

MIDDLETON      CLEAR     30  24  78 CALM      30.03R
6HR MIN TEMP:  30; 6HR MAX TEMP:  39;

WATERTOWN      CLEAR     28  23  82 SW3       30.03R
6HR MIN TEMP:  28; 6HR MAX TEMP:  39;

MONROE         CLEAR     28  23  80 SW7       30.04R WCI  21
JANESVILLE     CLEAR     30  23  74 SW6       30.05R WCI  24
$$

WIZ051-052-058>065-066-070>072-270700-
SOUTHEAST WISCONSIN

CITY           SKY/WX    TMP DP  RH WIND       PRES   REMARKS
MILWAUKEE      PTCLDY    35  23  61 W7        30.04R WCI  29
6HR MIN TEMP:  34; 6HR MAX TEMP:  43;

WAUKESHA       CLEAR     30  21  69 SW6       30.04R WCI  24
MILWAUKEE/TIMM PTCLDY    32  21  64 SW6       30.04R WCI  26
RACINE         CLEAR     34  27  75 SW7       30.06R WCI  28
6HR MIN TEMP:  34; 6HR MAX TEMP:  41;

KENOSHA        CLOUDY    34  29  82 W9        30.05R WCI  27
6HR MIN TEMP:  34; 6HR MAX TEMP:  40;

FOND DU LAC    CLEAR     29  20  69 SW5       30.01R WCI  24
6HR MIN TEMP:  29; 6HR MAX TEMP:  37;

SHEBOYGAN      CLEAR     31  21  66 W9        30.01R WCI  23
6HR MIN TEMP:  30; 6HR MAX TEMP:  37;

WEST BEND      CLEAR     32  23  69 W5        30.02R WCI  27
JUNEAU         CLEAR     31  22  71 W7        30.03R WCI  24
6HR MIN TEMP:  29; 6HR MAX TEMP:  36;

$$

LSZ147-162-270700-
LAKE SUPERIOR

STATION/POSITION TIME  TEMP    WIND        PRES    WAVE
                       AIR SEA DIR/SP/G            HT/PER
                 (UTC) (F)     (DEG/KT/KT) (MB)    (FT/S)
DEVILS ISLAND    0600   26     250/ 11/ 14 1015.1R
PORT WING        0540   12     140/  3/  6 1014.6S
SAXON HARBOR     0540   11     200/  4/  7 1014.6S
$$

LMZ867-665-643>646-270700-
LAKE MICHIGAN

STATION/POSITION TIME  TEMP    WIND        PRES    WAVE
                       AIR SEA DIR/SP/G            HT/PER
                 (UTC) (F)     (DEG/KT/KT) (MB)    (FT/S)
CHAMBERS ISLAND  0540   26     320/ 12/ 15 1015.2R
NORTHPORT PIER   0601   27     330/ 16/ 20 1015.9
SISTER BAY       0520   26     350/ 17/ 20   N/A
KEWAUNEE LAKESHO 0554   30      C


USA.gov is the U.S. government's official web portal to all federal, state and local government web resources and services.